Weather History for Miles City, MT

Change the Weather History Date:

Saturday, March 29, 2014

  Actual Average Record
Temperature  
Mean Temperature 48 °F 40 °F  
Max Temperature 64 °F 52 °F 83 °F (1943)
Min Temperature 32 °F 28 °F -5 °F (1954)
Degree Days  
Heating Degree Days 17 25  
Month to date heating degree days 981 892  
Since 1 July heating degree days 7020 6626  
Cooling Degree Days 0 0  
Month to date cooling degree days 0 0  
Year to date cooling degree days 0 0  
Moisture  
Dew Point 31 °F    
Average Humidity 56    
Maximum Humidity 82    
Minimum Humidity 30    
Precipitation  
Precipitation 0.00 in 0.03 in 0.56 in (1938)
Month to date precipitation 0.70 0.54  
Year to date precipitation 0.95 1.09  
Sea Level Pressure  
Sea Level Pressure 29.78 in    
Wind  
Wind Speed 11 mph (SW)    
Max Wind Speed 25 mph    
Max Gust Speed 30 mph    
Visibility 10 miles    
Events      
T = Trace of Precipitation, MM = Missing Value Source: NWS Daily Summary

Daily Weather History Graph

Daily Weather History Graph

Search for Another Location

Airport:

Trip Planner

Search our weather history database for the weather conditions in past years. The results will help you decide how hot, cold, wet, or windy it might be!

Date:

Astronomy

Mar. 29, 2014 Rise Set
Actual Time 6:48 AM MDT 7:28 PM MDT
Civil Twilight 6:18 AM MDT 7:58 PM MDT
Nautical Twilight 5:42 AM MDT 8:35 PM MDT
Astronomical Twilight 5:05 AM MDT 9:12 PM MDT
Moon 6:02 AM MDT (3/29) 6:34 PM MDT (3/29)
Length of Visible Light 13h 40m
Length of Day
12h 39m
Waning Crescent, 1% of the Moon is Illuminated
Mar 29
Waning Crescent
Mar 30
New
Apr 7
First Quarter
Apr 15
Full
Apr 22
Last Quarter

Hourly Weather History & Observations

Time (MDT) Temp. Windchill Dew Point Humidity Pressure Visibility Wind Dir Wind Speed Gust Speed Precip Events Conditions
12:53 AM 34.0 °F 24.6 °F 28.0 °F 79% 29.94 in 10.0 mi SSE 13.8 mph - N/A   Clear
1:53 AM 33.1 °F 24.4 °F 28.0 °F 82% 29.92 in 10.0 mi SSE 11.5 mph - N/A   Mostly Cloudy
2:53 AM 33.1 °F 24.4 °F 27.0 °F 78% 29.89 in 10.0 mi SSE 11.5 mph - N/A   Scattered Clouds
3:53 AM 34.0 °F 24.6 °F 28.0 °F 79% 29.86 in 10.0 mi SSE 13.8 mph - N/A   Partly Cloudy
4:53 AM 33.1 °F 23.9 °F 27.0 °F 78% 29.84 in 10.0 mi SSE 12.7 mph - N/A   Clear
5:53 AM 32.0 °F 22.5 °F 27.0 °F 82% 29.83 in 10.0 mi SSE 12.7 mph - N/A   Clear
6:53 AM 33.1 °F 23.0 °F 27.0 °F 78% 29.82 in 10.0 mi South 15.0 mph - N/A   Clear
7:53 AM 35.1 °F 26.9 °F 28.0 °F 76% 29.81 in 10.0 mi SSE 11.5 mph - N/A   Clear
8:53 AM 39.9 °F 32.9 °F 28.9 °F 65% 29.79 in 10.0 mi SSE 11.5 mph - N/A   Clear
9:53 AM 44.1 °F 40.1 °F 30.9 °F 60% 29.77 in 10.0 mi SSE 6.9 mph - N/A   Scattered Clouds
10:53 AM 50.0 °F - 30.9 °F 48% 29.75 in 10.0 mi SW 3.5 mph - N/A   Mostly Cloudy
11:53 AM 57.0 °F - 30.9 °F 37% 29.72 in 10.0 mi South 6.9 mph - N/A   Mostly Cloudy
12:53 PM 61.0 °F - 30.0 °F 31% 29.69 in 10.0 mi WSW 6.9 mph - N/A   Overcast
1:53 PM 62.1 °F - 30.0 °F 30% 29.70 in 10.0 mi NW 13.8 mph 20.7 mph N/A   Overcast
2:53 PM 63.0 °F - 30.9 °F 30% 29.68 in 10.0 mi WNW 19.6 mph 28.8 mph N/A   Mostly Cloudy
3:53 PM 60.1 °F - 34.0 °F 38% 29.70 in 10.0 mi NW 16.1 mph - N/A   Partly Cloudy
4:53 PM 57.9 °F - 35.1 °F 42% 29.70 in 10.0 mi NW 16.1 mph 23.0 mph N/A   Overcast
5:53 PM 55.0 °F - 36.0 °F 49% 29.73 in 10.0 mi NW 9.2 mph - N/A   Overcast
6:53 PM 53.1 °F - 35.1 °F 50% 29.75 in 10.0 mi WNW 11.5 mph - N/A   Scattered Clouds
7:53 PM 51.1 °F - 34.0 °F 52% 29.76 in 10.0 mi SW 4.6 mph - N/A   Overcast
8:53 PM 48.9 °F - 35.1 °F 59% 29.78 in 10.0 mi SW 11.5 mph - N/A   Partly Cloudy
9:53 PM 46.9 °F - 34.0 °F 61% 29.77 in 10.0 mi SW 10.4 mph - N/A   Mostly Cloudy
10:53 PM 46.9 °F - 35.1 °F 63% 29.78 in 10.0 mi WNW 8.1 mph - N/A   Overcast
11:53 PM 45.0 °F 40.6 °F 35.1 °F 68% 29.77 in 10.0 mi West 8.1 mph - N/A   Partly Cloudy